weather.gov     
National Weather Service

Regional Weather Roundup
NWS Homepage
This page is being discontinued on March 12, 2014.
The same data is available at this site. Please update your bookmarks.
Thank you, and we apologize for the inconvenience.
Please send an email to SR-SRH.Webmaster@noaa.gov with any concerns.


Current Version
Previous Version:    01  02  03  04  05  06  07  08  09  10  11  12  13  14  15  16  17  18  19  20  21  22  23  24  25  26  27  28  29  30  
   31  32  33  34  35  36  37  38  39  40  41  42  43  44  45  46  47  48  49  50  51  52  53  54  55  56  57  58  59  60  
[Printable]
266
ASUS44 KFWD 281415
RWRTX
NORTH TEXAS HOURLY WEATHER ROUNDUP
NATIONAL WEATHER SERVICE FORT WORTH TX
800 AM CST WED JAN 28 2015

NOTE: "FAIR" INDICATES FEW OR NO CLOUDS BELOW 12,000 FEET WITH NO
SIGNIFICANT WEATHER AND/OR OBSTRUCTIONS TO VISIBILITY.

TXZ118-119-281500-
DALLAS/FORT WORTH METROPLEX

CITY           SKY/WX    TMP DP  RH WIND       PRES   REMARKS
DFW AIRPORT    PTCLDY    50  41  71 S8        30.10R
DALLAS LOVE    PTCLDY    49  42  77 SE7       30.11R
FTW MEACHAM    CLEAR     49  41  74 S8        30.10R
DAL-EXECUTIVE  CLEAR     56  41  57 S6        30.10R
FTW-ALLIANCE   CLEAR     51  40  65 S5        30.09R
FTW-SPINKS     CLEAR     48  39  71 CALM      30.12R
ARLINGTON      CLEAR     54  41  61 S8        30.11R
GRAND PRAIRIE  CLEAR     54  43  66 S9        30.12
ADDISON        CLEAR     54  41  62 SE7       30.12
MESQUITE       CLEAR     45  39  81 SE6       30.12S
LANCASTER      CLEAR     45  39  79 CALM      30.13S
$$

TXZ091>094-102>105-117-120-121-131>134-281500-
NORTH CENTRAL TEXAS

CITY           SKY/WX    TMP DP  RH WIND       PRES   REMARKS
SHRMAN/DENISON CLEAR     50  43  76 S8        30.10S
GAINESVILLE    CLEAR     46  39  77 S5        30.11R
BOWIE          CLEAR     46  39  79 SE3       30.08S
BRIDGEPORT     CLEAR     38  33  81 CALM      30.10S
DECATUR        CLEAR     55  39  56 S5        30.09R
DENTON         CLEAR     43  38  82 SE5       30.09R
MCKINNEY       CLEAR     43  39  86 S5        30.11R
GREENVILLE     CLEAR     45  39  81 CALM      30.14R
ROCKWALL       CLEAR     51  42  70 S9        30.10S
TERRELL        CLEAR     50  42  74 S6        30.13S
WAXAHACHIE     CLEAR     48  42  81 S6        30.13R
CLEBURNE       CLEAR     48  43  81 S5        30.13R
GRANBURY       CLEAR     43  40  88 CALM      30.12S
$$

TXZ083>090-098>101-113>116-127>130-139>142-154-155-281500-
WESTERN NORTH TEXAS

CITY           SKY/WX    TMP DP  RH WIND       PRES   REMARKS
WICHITA FALLS  CLEAR     47  38  71 SW12      30.05R
WF-KICKAPOO    CLEAR    N/A N/A N/A SW8       30.08R
VERNON         PTCLDY    42  33  70 SW8       30.05S WCI  37
ABILENE        CLEAR     52  37  56 S8        30.10S
ABILENE-DYESS  CLEAR     55  39  56 S8        30.09S
BRECKENRIDGE   CLEAR     51  38  59 S12       30.09S
GRAHAM         CLEAR     41  37  87 CALM      30.07S
MINERAL WELLS  CLEAR     48  40  73 SE7       30.09R
STEPHENVILLE   CLEAR     48  38  70 CALM      30.14S
COMANCHE       CLEAR     54  39  57 SW6       30.13R
BROWNWOOD      CLEAR     37  36  93 CALM      30.15R
COLEMAN        CLEAR     51  39  64 SW3       30.13R
BRADY          CLEAR     52  34  50 CALM      30.13S
$$

TXZ143>147-156>162-174-175-281500-
CENTRAL TEXAS

CITY           SKY/WX    TMP DP  RH WIND       PRES   REMARKS
WACO           CLEAR     41  38  89 CALM      30.14R
WACO-MCGREGOR  CLEAR     46  37  71 S5        30.15R
HILLSBORO      CLEAR     46  39  76 SE5       30.13S
CORSICANA      CLEAR     50  41  71 S7        30.15R
MEXIA          CLEAR     49  42  77 S6        30.15R
HEARNE         CLEAR     42  40  93 CALM      30.17R
CAMERON        CLEAR     46  42  87 CALM      30.16R
TEMPLE         CLEAR     45  37  76 SE3       30.13S
KILLEEN        CLEAR     57  37  46 S6        30.14R
FORT HOOD      CLEAR     55  38  51 MISG      30.13R
GATESVILLE     CLEAR     45  39  81 CALM      30.16S
HAMILTON       CLEAR     47  38  68 S6        30.14R
LAMPASAS       CLEAR     49  42  75 CALM      30.13R
$$

TXZ095>097-106>112-122>126-135>138-148>153-164>167-281500-
EAST TEXAS

CITY           SKY/WX    TMP DP  RH WIND       PRES   REMARKS
PARIS          CLEAR     43  36  75 E10       30.15R WCI  37
SULPHUR SPRNGS CLEAR     54  42  64 S7        30.16R
MOUNT PLEASANT CLEAR     44  39  83 CALM      30.17R
GILMER         CLEAR     48  41  76 S3        30.16R
MINEOLA        CLEAR     39  39 100 CALM      30.15R
TYLER          CLEAR     50  43  77 S8        30.15R
LONGVIEW       CLEAR     43  40  89 SE3       30.17R
MARSHALL       CLEAR     42  40  91 CALM      30.19S
ATHENS         CLEAR     41  37  87 CALM      30.14S
PALESTINE      CLEAR     53  45  74 SE5       30.17R
HENDERSON      CLEAR     42  40  94 CALM      30.18R
NACOGDOCHES    CLEAR     41  37  87 CALM      30.19R
LUFKIN         CLEAR     45  40  82 SE3       30.18S
$$

SUPPLEMENTAL OBSERVATIONS (CENTRAL)

CITY           SKY/WX    TMP DP  RH WIND       PRES   REMARKS
PAT MAYSE LAKE   N/A     45  36  70 NE3         N/A
GREENVILLE       N/A     52  39  62 S6          N/A
CEDAR HILL       N/A     55  39  54 S5          N/A
PALESTINE        N/A     54  45  71 SE2         N/A
LAKE LIMESTONE   N/A     54  43  66 S2          N/A
MCGREGOR         N/A     45  41  87 SW3         N/A
TEMPLE           N/A     52  43  71 S3          N/A
$$

SUPPLEMENTAL OBSERVATIONS (WEST)

CITY           SKY/WX    TMP DP  RH WIND       PRES   REMARKS
MILLERS CREEK    N/A     45  39  81 SW7         N/A
POSSUM KINGDOM   N/A     55  34  44 S5G13       N/A
GRANBURY         N/A     43  39  87 SE2         N/A
COMANCHE         N/A     54  36  50 SW7         N/A
HAMBY            N/A     50  37  62 S7          N/A
IVIE RESERVOIR   N/A     48  37  66 NW6         N/A
COLORADO BEND    N/A     54  37  54 W1          N/A
$$

SUPPLEMENTAL OBSERVATIONS (EAST)

CITY           SKY/WX    TMP DP  RH WIND       PRES   REMARKS
CLARKSVILLE      N/A     45  39  81 E5          N/A
TEXARKANA        N/A     36  32  87 CALM        N/A
LINDEN           N/A     39  36  87 CALM        N/A
CADDO LAKE       N/A     37  36  93 CALM        N/A
GILMER           N/A     46  41  81 SW2         N/A
HENDERSON        N/A     46  41  81 SE2         N/A
LUFKIN           N/A     45  41  87 MISG        N/A
S SABINE NF      N/A     39  36  87 CALM        N/A
$$

SUPPLEMENTAL OBSERVATIONS ARE A COLLECTION OF AUTOMATED INSTRUMENTS
THAT ARE MAINTAINED BY A VARIETY OF FEDERAL AND STATE AGENCIES.
CERTAIN ELEMENTS...SUCH AS HUMIDITY VALUES AND SUSTAINED WIND
SPEEDS...MAY BE APPROXIMATED.





U.S. Dept. of Commerce
NOAA National Weather Service
1325 East West Highway
Silver Spring, MD 20910
E-mail: w-nws.webmaster@noaa.gov
Page last modified: May 16, 2007
NATIONAL WEATHER SERVICE: for Safety, for Work, for Fun - FOR LIFE